Flag for Croatia Weather past 2 weeks in Dubrovnik, Croatia

Now
57 °F

Passing clouds.


Feels Like: 56 °F
Forecast: 47 / 58 °F
Wind: 7 mph from Northwest

Location: Dubrovnik / Cilipi

Current Time: Apr 19, 2015 at 7:40:03 PM

Latest Report: Apr 19, 2015 at 7:00 PM


Visibility: N/A

Pressure: 30.01 "Hg

Humidity: 55%

Dew point: 41 °F

Location of DubrovnikLocation

Historic Weather in Dubrovnik — Graph

°F

Dubrovnik temperature yesterday

Maximum temperature yesterday: 63 °F (at 12:00 PM)
Minimum temperature yesterday: 55 °F (at 1:00 AM)
Average temperature yesterday: 59 °F

Past Weeks' High & Low Weather Summary

 TemperatureHumidityPressure
High68 °F (Apr 13, 9:30 AM)93% (Apr 5, 4:30 AM)30.39 "Hg (Apr 5, 4:30 AM)
Low41 °F (Apr 11, 4:30 AM)23% (Apr 15, 6:00 AM)29.65 "Hg (Apr 5, 8:30 AM)
Average55 °F54%30.12 "Hg
* Reported Apr 4 6:00 PM — Apr 19 6:30 PM, Dubrovnik, Weather by CustomWeather, © 2015

Note: Actual official high and low records may vary slightly from our data, if they occured in-between our weather recording intervals... More about our weather records

Advertising

Dubrovnik weather history for previous 24 hours

 ConditionsComfort  
Time TempWeatherWind HumidityBarometerVisibility
6:30 PM
Sun, Apr 19
57 °FSunny.10 mph55%29.98 "Hg10 mi
6:00 PM57 °FPassing clouds.10 mph55%29.98 "HgN/A
5:30 PM59 °FPassing clouds.8 mph45%29.98 "HgN/A
5:00 PM59 °FPassing clouds.8 mph42%29.98 "HgN/A
4:30 PM59 °FPassing clouds.7 mph42%29.98 "HgN/A
4:00 PM59 °FPassing clouds.8 mph42%29.98 "HgN/A
3:30 PM61 °FPassing clouds.8 mph42%30.01 "HgN/A
3:00 PM59 °FPassing clouds.7 mph48%30.01 "HgN/A
2:30 PM59 °FPassing clouds.8 mph51%30.01 "HgN/A
2:00 PM59 °FPassing clouds.8 mph51%30.01 "HgN/A
1:30 PM61 °FPassing clouds.10 mph48%30.01 "HgN/A
1:00 PM59 °FPassing clouds.10 mph48%30.01 "HgN/A
12:30 PM61 °FPassing clouds.9 mph52%30.01 "HgN/A
12:00 PM59 °FPassing clouds.12 mph55%30.01 "HgN/A
11:30 AM59 °FPassing clouds.13 mph59%30.01 "HgN/A
11:00 AM59 °FPassing clouds.9 mph59%30.01 "HgN/A
10:30 AM59 °FPassing clouds.8 mph55%30.01 "HgN/A
10:00 AM59 °FPassing clouds.15 mph39%30.01 "HgN/A
9:30 AM55 °FPassing clouds.23 mph44%30.01 "HgN/A
9:00 AM54 °FPassing clouds.26 mph47%30.01 "HgN/A
8:30 AM52 °FPassing clouds.31 mph47%30.01 "HgN/A
8:00 AM52 °FPassing clouds.33 mph47%29.98 "HgN/A
7:30 AM50 °FPassing clouds.36 mph50%29.98 "HgN/A
7:00 AM50 °FPassing clouds.32 mph54%29.98 "HgN/A
6:30 AM50 °FPassing clouds.21 mph62%29.98 "HgN/A
6:00 AM50 °FPassing clouds.25 mph62%29.95 "HgN/A
5:30 AM54 °FPassing clouds.25 mph54%29.95 "HgN/A
5:00 AM50 °FPassing clouds.31 mph62%29.95 "HgN/A
4:30 AM50 °FPassing clouds.31 mph67%29.95 "HgN/A
4:00 AM48 °FLight rain. Passing clouds.33 mph71%29.95 "HgN/A
3:30 AM48 °FLight rain. Passing clouds.32 mph71%29.95 "HgN/A
3:00 AM50 °FPassing clouds.38 mph62%29.95 "HgN/A
2:30 AM50 °FPassing clouds.38 mph62%29.95 "HgN/A
2:00 AM52 °FLight rain. Passing clouds.35 mph62%29.98 "HgN/A
1:30 AM52 °FLight rain. Passing clouds.37 mph62%29.98 "HgN/A
1:00 AM55 °FPassing clouds.29 mph47%29.95 "HgN/A
12:30 AM55 °FPassing clouds.29 mph51%29.95 "HgN/A
12:00 AM55 °FPassing clouds.31 mph51%29.95 "HgN/A
11:30 PM
Sat, Apr 18
55 °FPassing clouds.26 mph51%29.92 "HgN/A
11:00 PM55 °FPassing clouds.23 mph55%29.92 "HgN/A
10:30 PM55 °FPassing clouds.24 mph55%29.95 "HgN/A
10:00 PM55 °FPassing clouds.21 mph55%29.92 "HgN/A
9:30 PM57 °FPassing clouds.22 mph51%29.92 "HgN/A
9:00 PM55 °FPassing clouds.25 mph55%29.92 "HgN/A
8:30 PM57 °FPassing clouds.28 mph51%29.92 "HgN/A
8:00 PM57 °FPassing clouds.24 mph51%29.92 "HgN/A
7:30 PM59 °FScattered clouds.24 mph55%29.92 "HgN/A
7:00 PM61 °FScattered clouds.12 mph55%29.92 "HgN/A
Weather by CustomWeather, © 2015

See weather overviewHow to use our weather pages